Regional Weather Roundup
Issued by NWS

Home | Current Version | Previous Version | Text Only | Print | Product List | Glossary On
Versions: 1 2 3 4 5 6 7 8 9 10 11 12 13 14 15 16 17 18 19 20 21 22 23 24 25 26 27 28 29 30 31 32 33 34 35 36 37 38 39 40 41 42 43 44 45 46 47 48 49 50
000
ASUS43 KLOT 111009
RWRIL

ILLINOIS REGIONAL WEATHER ROUNDUP
NATIONAL WEATHER SERVICE CHICAGO/ROMEOVILLE IL
500 AM CDT TUE AUG 11 2020

NOTE: "FAIR" INDICATES FEW OR NO CLOUDS BELOW 12,000 FEET WITH NO
SIGNIFICANT WEATHER AND/OR OBSTRUCTIONS TO VISIBILITY.

* THESE STATIONS ARE NOT UNDER NWS QUALITY CONTROL. THEY ALSO MAY NOT
  REPORT WEATHER SUCH AS PRECIPITATION OR FOG.

ILZ001-002-007-009-015-016-024-111100-
NORTHWEST ILLINOIS

CITY           SKY/WX    TMP DP  RH WIND       PRES   REMARKS
MOLINE           N/A    N/A N/A N/A MISG      29.97S
SAVANNA*       FOG       61  61 100 CALM      29.98R VSB 1/4
$$

ILZ003-004-008-010-011-017-018-111100-
NORTH CENTRAL ILLINOIS

CITY           SKY/WX    TMP DP  RH WIND       PRES   REMARKS
ROCKFORD       PTCLDY    63  60  90 CALM      29.97S
FREEPORT*      CLEAR     60  60 100 CALM      29.99R
ROCHELLE*      FOG       58  58 100 CALM      29.98R VSB 1/2
DE KALB*       CLEAR     62  62 100 CALM      29.97S
PERU*          PTCLDY    64  63  97 W5        29.97S FOG
$$

ILZ005-006-012>014-019>023-111100-
NORTHEAST ILLINOIS

CITY           SKY/WX    TMP DP  RH WIND       PRES   REMARKS
CHICAGO-OHARE  MOCLDY    67  64  90 W7        29.93R
CHICAGO-MIDWAY MOCLDY    67  65  93 W7        29.93S
AURORA         PTCLDY    60  60 100 CALM      29.95S FOG
WAUKEGAN       MOCLDY    66  63  90 NW5       29.92R
DUPAGE AIRPORT PTCLDY    64  62  93 CALM      29.94S
WHEELING       PTCLDY    68  65  90 W6        29.94R
MORRIS*        PTCLDY    63  62  98 W3        29.95S
ROMEOVILLE*    MOCLDY    64  64 100 W6        29.96R
NORTHERLY ISL    N/A     68  64  87 W6          N/A
$$

LMZ740>746-111100-
SOUTHERN LAKE MICHIGAN

STATION/POSITION SKY/WX   TEMP    WIND        PRES    VSBY  WAVE
                          AIR SEA DIR/SP/G                  HT/PER
                          (F)     (DEG/KT/KT) (MB)    (MI)  (FT/S)
SOUTHERN BUOY              72 72  330/ 12/ 14 1012.0R         2/ 4
WINTHROP HARBOR            68 71  310/  6/ 10   N/A           1
WILMETTE HARBOR            69 73  260/ 10/ 12 1012.8R         1/ 2
HARRISON CRIB              69     260/ 12/ 13   N/A
NORTHERLY ISL              68     240/  6/  9   N/A
CALUMET HARBOR             67     230/  4/  8 1013.1
MICHIGAN CITY              68     230/ 13/ 15   N/A
MICHIGAN CITY 6N           73 73                N/A           3/ 4
$$

ILZ025>027-034>036-040-047-049-050-058-095>099-111100-
WEST-CENTRAL ILLINOIS

CITY           SKY/WX    TMP DP  RH WIND       PRES   REMARKS
QUINCY         CLEAR     64  62  93 CALM      29.98R
GALESBURG*     PTCLDY    62  62 100 CALM      29.99S
MACOMB*        CLEAR     60  60 100 NW5       30.00S FOG
JACKSONVILLE*  FOG       64  64 100 CALM      29.97F VSB 1/4
PITTSFIELD*    PTCLDY    66  66 100 CALM      29.99S
$$

ILZ028>032-037-038-041>044-048-051>054-059>061-111100-
CENTRAL ILLINOIS

CITY           SKY/WX    TMP DP  RH WIND       PRES   REMARKS
PONTIAC        CLEAR     64  63  98 CALM      29.96F
BLOOMINGTON    MOCLDY    65  65 100 W8        29.97F
DECATUR        PTCLDY    66  66 100 SW5       29.97S
PEORIA         MOCLDY    65  63  93 W5        29.97S
LINCOLN*       MOCLDY    65  63  92 CALM      29.97S FOG
SPRINGFIELD    CLEAR     65  63  93 CALM      29.97S
TAYLORVILLE    PTCLDY    65  65 100 CALM      29.98R
$$

ILZ033-039-045-046-055>057-062-063-111100-
EAST-CENTRAL ILLINOIS

CITY           SKY/WX    TMP DP  RH WIND       PRES   REMARKS
CHAMPAIGN      MOCLDY    65  64  97 SW5       29.98R
DANVILLE*      MOCLDY    66  66 100 W6        29.98R
RANTOUL*       PTCLDY    64  64  99 W3        29.97S FOG
MATTOON        MOCLDY    67  66  97 CALM        N/A
PARIS*         MOCLDY    67  67  98 CALM      29.99R
$$

ILZ079-100>102-111100-
SOUTHWEST ILLINOIS

CITY           SKY/WX    TMP DP  RH WIND       PRES   REMARKS
ALTON          CLOUDY    67  67 100 CALM      29.97F FOG
BELLEVILLE     CLOUDY    70  70 100 CALM      29.97S
CAHOKIA*       MOCLDY    68  68 100 SE3       29.97F
SPARTA*        CLOUDY    70  68  94 CALM      30.00R
$$

ILZ064>066-069>071-074>076-080>082-084>086-088>090-092>094-111100-
SOUTH-CENTRAL ILLINOIS

CITY           SKY/WX    TMP DP  RH WIND       PRES   REMARKS
CARBONDALE     CLOUDY    70  68  93 CALM      29.98R
CAIRO*         CLEAR     69  69  99 SW3       29.97S
EFFINGHAM*     CLOUDY    68  67  96 CALM      29.99F
MARION         PTCLDY    68  68 100 CALM      29.99R
MT. VERNON     CLOUDY    68  67  96 CALM      29.98S
CENTRALIA*     CLOUDY    67  67 100 CALM      29.97F FOG
SALEM*         CLOUDY    69  68  96 CALM      29.97F FOG
METROPOLIS*      N/A     67  67 100 W6        29.97S
$$

ILZ067-068-072-073-078-083-087-091-111100-
SOUTHEAST ILLINOIS

CITY           SKY/WX    TMP DP  RH WIND       PRES   REMARKS
LAWRENCEVILLE  MOCLDY    69  68  96 W5        29.97S
FLORA*         CLOUDY    68  68 100 NW3       29.98F
FAIRFIELD*     PTCLDY    66  66 100 CALM      29.97S FOG
HARRISBURG*    PTCLDY    68  67  98 CALM      29.98R
ROBINSON*      PTCLDY    64  64 100 SW3       29.97F FOG
CARMI*         PTCLDY    66  66 100 N3        29.98R
$$

ABBREVIATIONS USED IN REMARKS
   TC - TEMPERATURE IN CELSIUS
  WCI - WIND CHILL INDEX
   HX - HEAT INDEX
  VSB - VISIBILITY
$$





USA.gov is the U.S. government's official web portal to all federal, state and local government web resources and services.